False Pass, AK

10:38 AM HDT on July 22, 2017 (GMT -0900)
False Pass

Weather History for PAKF - January, 2013

Change the Weather History Date:

Friday, January 25, 2013

  Actual Average (PACD) Record (PACD)
Temperature  
Mean Temperature 32 °F -  
Max Temperature 37 °F 33 °F 48 °F (1963)
Min Temperature 26 °F 24 °F -5 °F (1956)
Degree Days  
Heating Degree Days 34    
Moisture  
Dew Point 28 °F    
Average Humidity 84    
Maximum Humidity 93    
Minimum Humidity 75    
Precipitation  
Precipitation 0.00 in - - ()
Sea Level Pressure  
Sea Level Pressure 30.05 in    
Wind  
Wind Speed 4 mph (South)    
Max Wind Speed 12 mph    
Max Gust Speed -    
Visibility 10 miles    
Events Rain    
Averages and records for this station are not official NWS values.
T = Trace of Precipitation, MM = Missing Value Source: NWS Daily Summary

Daily Weather History Graph

Daily Weather History Graph

Search for Another Location

Airport or City:

Trip Planner

Search our weather history database for the weather conditions in past years. The results will help you decide how hot, cold, wet, or windy it might be!

Date:

Astronomy

Jan. 25, 2013 Rise Set
Actual Time 8:54 AM HST 5:18 PM HST
Civil Twilight 8:13 AM HST 5:59 PM HST
Nautical Twilight 7:29 AM HST 6:43 PM HST
Astronomical Twilight 6:46 AM HST 7:26 PM HST
Moon 4:28 PM HST (1/25) 7:42 AM HST (1/25)
Length of Visible Light 9h 45m
Length of Day
8h 23m
Waxing Gibbous, 98% of the Moon is Illuminated
Jan 25
Waxing Gibbous
Jan 26
Full
Feb 3
Last Quarter
Feb 9
New
Feb 17
First Quarter

Hourly Weather History & Observations

Time (HST) Temp. Windchill Dew Point Humidity Pressure Visibility Wind Dir Wind Speed Gust Speed Precip Events Conditions
12:01 AM 34.0 °F 27.2 °F 28.0 °F 79% 30.06 in 10.0 mi NNE 8.1 mph - N/A   Partly Cloudy
1:01 AM 34.0 °F 25.5 °F 27.0 °F 75% 30.07 in 10.0 mi West 11.5 mph - N/A   Clear
2:01 AM 33.1 °F 28.7 °F 27.0 °F 78% 30.09 in 10.0 mi NE 4.6 mph - N/A   Clear
3:01 AM 32.0 °F - 27.0 °F 82% 30.10 in 10.0 mi Calm Calm - N/A   Clear
4:01 AM 30.9 °F - 27.0 °F 85% 30.11 in 10.0 mi Calm Calm - N/A   Clear
5:01 AM 28.9 °F - 26.1 °F 89% 30.12 in 10.0 mi Calm Calm - N/A   Partly Cloudy
6:01 AM 28.0 °F 24.2 °F 25.0 °F 88% 30.13 in 10.0 mi SSW 3.5 mph - N/A   Partly Cloudy
6:56 AM 26.6 °F 21.2 °F 24.8 °F 93% 29.84 in 10.0 mi WSW 4.6 mph - N/A   Mostly Cloudy
7:01 AM 27.0 °F 20.5 °F 24.1 °F 89% 30.13 in 10.0 mi SSW 5.8 mph - N/A   Mostly Cloudy
7:26 AM 26.6 °F 21.2 °F 24.8 °F 93% 29.85 in 10.0 mi South 4.6 mph - N/A   Scattered Clouds
8:01 AM 27.0 °F 19.5 °F 24.1 °F 89% 30.15 in 10.0 mi SSW 6.9 mph - N/A   Scattered Clouds
8:09 AM 26.6 °F 22.6 °F 24.8 °F 93% 29.86 in 10.0 mi SW 3.5 mph - N/A   Mostly Cloudy
8:31 AM 26.6 °F 20.0 °F 24.8 °F 93% 29.86 in 10.0 mi SSW 5.8 mph - N/A   Scattered Clouds
9:01 AM 27.0 °F 20.5 °F 24.1 °F 89% 30.15 in 10.0 mi South 5.8 mph - N/A   Partly Cloudy
10:01 AM 30.0 °F - 26.1 °F 85% 30.15 in 10.0 mi Calm Calm - N/A   Scattered Clouds
11:01 AM 32.0 °F - 27.0 °F 82% 30.16 in 10.0 mi Calm Calm - N/A   Overcast
11:18 AM 33.8 °F - 28.4 °F 81% 29.88 in 10.0 mi Calm Calm - N/A   Overcast
12:01 PM 34.0 °F 29.8 °F 28.0 °F 79% 30.18 in 10.0 mi ENE 4.6 mph - N/A   Overcast
12:46 PM 35.6 °F - 28.4 °F 75% 29.89 in 10.0 mi Calm Calm - N/A   Overcast
1:01 PM 37.9 °F 35.5 °F 32.0 °F 79% 30.18 in 10.0 mi SE 3.5 mph - N/A   Mostly Cloudy
1:21 PM 35.6 °F - 28.4 °F 75% 29.89 in 10.0 mi Calm Calm - N/A   Mostly Cloudy
2:01 PM 35.1 °F - 28.0 °F 76% 30.16 in 10.0 mi Calm Calm - N/A   Mostly Cloudy
2:18 PM 35.6 °F - 28.4 °F 75% 29.87 in 10.0 mi Calm Calm - N/A   Mostly Cloudy
3:01 PM 35.1 °F - 28.0 °F 76% 30.16 in 10.0 mi Calm Calm - N/A   Overcast
3:32 PM 33.8 °F - 30.2 °F 87% 29.87 in 10.0 mi Calm Calm - N/A   Overcast
4:01 PM 35.1 °F 28.6 °F 30.0 °F 82% 30.18 in 10.0 mi SSE 8.1 mph - N/A   Overcast
5:01 PM 34.0 °F - 30.0 °F 85% 30.18 in 10.0 mi Calm Calm - N/A   Overcast
5:30 PM 33.8 °F - 28.4 °F 81% 29.90 in 10.0 mi Calm Calm - N/A   Overcast
6:01 PM 34.0 °F - 28.9 °F 82% 30.19 in 10.0 mi Calm Calm - N/A   Overcast
7:01 PM 33.1 °F - 30.0 °F 89% 30.21 in 10.0 mi Calm Calm - N/A   Overcast
8:01 PM 33.1 °F - 30.0 °F 89% 30.21 in 10.0 mi Calm Calm - N/A   Mostly Cloudy
8:47 PM 33.8 °F - 30.2 °F 87% 29.93 in 10.0 mi Calm Calm - N/A   Overcast
9:01 PM 33.1 °F - 30.0 °F 89% 30.22 in 10.0 mi Calm Calm - N/A   Mostly Cloudy
9:21 PM 32.0 °F - 28.4 °F 87% 29.92 in 10.0 mi Calm Calm - N/A   Partly Cloudy
11:01 PM 34.0 °F 31.0 °F 30.0 °F 85% 30.23 in 10.0 mi East 3.5 mph - N/A   Overcast
11:18 PM 33.8 °F - 30.2 °F 87% 29.95 in 10.0 mi Calm Calm - N/A   Overcast
11:38 PM 33.8 °F - 30.2 °F 87% 29.95 in 10.0 mi Calm Calm - 0.00 in Rain Light Rain